Weather History for KCEU - November, 2012

Change the Weather History Date:

Thursday, November 1, 2012

  Actual Average Record
Temperature  
Mean Temperature 52 °F -  
Max Temperature 68 °F - - ()
Min Temperature 39 °F - - ()
Degree Days  
Heating Degree Days 12    
Growing Degree Days 2 (Base 50)    
Moisture  
Dew Point 19 °F    
Average Humidity 30    
Maximum Humidity 49    
Minimum Humidity 13    
Precipitation  
Precipitation 0.00 in - - ()
Sea Level Pressure  
Sea Level Pressure 29.88 in    
Wind  
Wind Speed 8 mph (West)    
Max Wind Speed 15 mph    
Max Gust Speed 18 mph    
Visibility 10 miles    
Events      
T = Trace of Precipitation, MM = Missing Value Source: NWS Daily Summary

Daily Weather History Graph

Daily Weather History Graph

Search for Another Location

Airport or City:

Trip Planner

Search our weather history database for the weather conditions in past years. The results will help you decide how hot, cold, wet, or windy it might be!

Date:

Astronomy

Nov. 01, 2012 Rise Set
Actual Time 7:52 AM EDT 6:37 PM EDT
Civil Twilight 7:26 AM EDT 7:03 PM EDT
Nautical Twilight 6:56 AM EDT 7:33 PM EDT
Astronomical Twilight 6:27 AM EDT 8:02 PM EDT
Moon 8:38 PM EDT (11/1) 10:18 AM EDT (11/1)
Length of Visible Light 11h 36m
Length of Day
10h 44m
Waning Gibbous, 93% of the Moon is Illuminated
Nov 1
Waning Gibbous
Nov 6
Last Quarter
Nov 13
New
Nov 20
First Quarter
Nov 28
Full

Hourly Weather History & Observations

Time (EDT) Temp. Windchill Dew Point Humidity Pressure Visibility Wind Dir Wind Speed Gust Speed Precip Events Conditions
12:54 AM 48.9 °F - 21.0 °F 33% 29.83 in 10.0 mi West 5.8 mph - N/A   Clear
1:54 AM 48.9 °F - 21.0 °F 33% 29.83 in 10.0 mi West 4.6 mph - N/A   Clear
2:54 AM 50.0 °F - 18.0 °F 28% 29.83 in 10.0 mi NW 10.4 mph - N/A   Clear
3:54 AM 48.0 °F - 17.1 °F 29% 29.83 in 10.0 mi WNW 9.2 mph - N/A   Clear
4:54 AM 45.0 °F 43.5 °F 19.0 °F 36% 29.83 in 10.0 mi WSW 3.5 mph - N/A   Clear
5:54 AM 41.0 °F 36.4 °F 21.0 °F 45% 29.84 in 10.0 mi West 6.9 mph - N/A   Clear
6:54 AM 41.0 °F 36.4 °F 21.0 °F 45% 29.85 in 10.0 mi West 6.9 mph - N/A   Clear
7:54 AM 39.0 °F 34.0 °F 21.0 °F 49% 29.87 in 10.0 mi West 6.9 mph - N/A   Clear
8:54 AM 43.0 °F 37.7 °F 21.0 °F 42% 29.88 in 10.0 mi WSW 9.2 mph - N/A   Clear
9:54 AM 48.9 °F - 23.0 °F 36% 29.90 in 10.0 mi West 11.5 mph - N/A   Clear
10:54 AM 52.0 °F - 24.1 °F 34% 29.91 in 10.0 mi West 5.8 mph - N/A   Clear
11:54 AM 55.0 °F - 21.9 °F 28% 29.91 in 10.0 mi WSW 3.5 mph - N/A   Clear
12:54 PM 60.1 °F - 21.0 °F 22% 29.88 in 10.0 mi Variable 6.9 mph - N/A   Clear
2:54 PM 64.9 °F - 18.0 °F 16% 29.83 in 10.0 mi WSW 10.4 mph 18.4 mph N/A   Clear
4:54 PM 66.0 °F - 14.0 °F 13% 29.83 in 10.0 mi West 15.0 mph - N/A   Clear
6:54 PM 57.9 °F - 17.1 °F 20% 29.89 in 10.0 mi West 11.5 mph - N/A   Clear
7:54 PM 55.9 °F - 17.1 °F 22% 29.92 in 10.0 mi West 12.7 mph - N/A   Clear
8:54 PM 54.0 °F - 17.1 °F 23% 29.93 in 10.0 mi West 8.1 mph - N/A   Clear
9:54 PM 52.0 °F - 17.1 °F 25% 29.94 in 10.0 mi West 10.4 mph - N/A   Clear
10:54 PM 51.1 °F - 18.0 °F 27% 29.95 in 10.0 mi WSW 8.1 mph - N/A   Clear
11:54 PM 50.0 °F - 18.0 °F 28% 29.94 in 10.0 mi WSW 8.1 mph - N/A   Clear